CAPE
101 119 202 321 674 1091 1169 1024 702 614 602 569 480 447 653 952 1161 1118 1235 1594 1617 1464 1326 1303 1207 1053 1086 959 791 929 702 753 840 784 1136 1441 1540 1516 1613 1742 1845 2079 1340
170 165 134 295 674 1100 1091 1196 1147 938 760 777 602 775 1029 1001 1072 1250 1395 1616 1767 1634 1635 1471 1131 1264 1282 1437 1405 1312 1159 1127 1315 1535 1596 1589 1592 1709 1803 1844 2002 1416 1134
291 238 169 183 477 853 1133 959 1074 1411 1389 1246 1474 1635 1453 1321 1075 1239 1400 1488 1609 1648 1617 1576 1501 1353 1209 1549 1622 1276 1267 1446 1573 1516 1407 1515 1680 1743 1569 1621 1233 1080 1093
410 373 247 231 362 692 919 1112 1005 1153 1416 1348 1426 1422 1455 1281 1198 1270 1343 1472 1548 1573 1593 1511 1430 1377 1397 1415 1601 1412 1449 1329 1364 1296 1174 1325 1479 1624 1298 1199 1061 1247 863
551 517 444 355 395 614 726 795 997 1053 1196 1373 1231 1126 1356 1357 1284 1333 1572 1568 1603 1608 1628 1557 1572 1408 1555 1582 1622 1469 1369 1440 1415 1236 1030 1051 1154 1262 1278 1116 1057 1021 708
649 668 598 563 500 466 604 631 637 703 909 1083 1271 1206 1277 1591 1449 1433 1603 1528 1505 1611 1538 1572 1577 1551 1533 1482 1304 1187 1134 953 953 1080 928 1018 914 1008 1106 959 783 628 682
840 843 805 680 696 719 682 642 593 529 515 504 632 976 1379 1552 1540 1425 1074 1158 1290 1345 1434 1521 1475 1528 1499 1418 1323 1102 943 668 836 975 611 623 678 899 676 618 504 494 503
936 930 985 898 865 939 965 878 811 764 659 576 664 776 781 1097 1383 1156 927 788 949 1134 1277 1083 954 940 1051 1095 987 957 910 882 769 573 501 687 814 750 614 505 489 327 415
853 805 924 899 1015 1029 764 723 786 772 719 747 547 531 765 1002 592 419 508 751 736 660 618 504 444 441 457 364 287 349 413 370 520 450 382 284 245 334 172 176 310 386 398
371 490 504 499 596 424 153 101 63 183 384 100 0 0 22 176 79 42 83 179 187 180 135 61 41 153 350 308 286 173 115 148 128 173 264 278 433 505 428 248 454 555 459
0 12 31 58 165 116 105 149 32 43 61 0 0 0 0 0 23 0 0 8 58 10 2 1 19 15 0 0 0 0 0 22 54 100 124 250 355 340 367 275 163 393 604
0 64 5 1 98 60 39 33 0 33 22 0 2 0 0 0 0 0 0 0 3 12 23 10 0 0 0 0 0 0 0 0 0 0 19 259 464 701 765 683 578 416 340
259 160 102 294 316 254 229 207 144 73 7 6 1 0 0 0 0 0 0 0 0 0 3 0 0 0 0 0 0 0 0 0 0 29 174 363 479 632 663 396 163 45 9
0 39 172 341 274 348 363 287 263 197 41 0 0 0 0 0 0 0 0 0 0 0 0 0 0 0 0 0 0 0 0 3 4 27 174 157 130 138 190 255 320 91 51
0 0 118 312 270 191 47 85 64 0 59 192 66 29 48 61 35 2 0 0 0 0 0 0 0 0 0 0 0 0 0 0 0 0 0 1 2 2 3 4 58 117 198
0 0 2 57 0 0 0 0 0 0 0 0 1 42 0 4 0 0 0 0 0 0 0 0 0 0 1 2 0 0 0 0 0 1 2 3 2 1 2 1 1 5 87
0 0 0 0 0 0 0 0 1 0 0 0 0 0 0 0 0 0 0 0 0 0 0 0 0 0 0 2 1 0 0 0 0 0 0 0 1 1 1 1 1 2 3
0 0 0 0 0 0 0 0 0 0 0 0 0 0 0 0 0 0 0 0 0 0 0 0 0 0 0 0 0 0 0 0 0 0 0 0 0 1 0 0 1 2 3
0 0 0 0 0 0 0 0 0 0 0 0 0 0 0 0 0 0 0 0 0 0 0 0 0 0 0 0 0 0 0 0 0 0 0 0 0 0 0 0 1 0 1
0 0 0 0 0 0 0 0 0 0 0 0 0 0 0 0 0 0 0 0 0 0 0 0 0 0 0 0 0 0 0 0 0 0 0 0 0 0 1 2 3 2 3
0 0 0 0 0 0 0 0 0 0 0 0 0 0 0 0 0 0 0 0 0 0 0 0 0 0 0 0 0 0 0 0 0 0 0 0 0 0 0 0 0 0 4
0 0 0 0 0 0 0 0 0 0 0 0 0 0 0 0 0 0 0 0 0 0 0 0 0 0 0 0 0 0 0 0 0 0 0 0 0 0 0 0 0 0 0
0 0 0 0 0 0 0 0 0 0 0 0 0 0 0 0 0 0 0 0 0 0 0 0 0 0 0 0 0 0 0 0 0 0 0 0 0 0 0 0 0 0 0
0 0 0 0 0 0 0 0 0 0 0 0 0 0 0 0 0 0 0 0 0 0 13 23 4 0 0 0 0 0 0 0 0 0 0 0 0 0 0 0 0 0 0
0 0 0 0 0 0 0 0 0 0 0 0 0 0 0 0 0 0 0 0 0 0 0 14 28 5 0 0 0 0 0 0 0 0 0 0 0 0 0 0 0 0 0
0 0 0 0 0 0 0 0 0 0 0 0 0 0 0 0 0 0 0 0 0 0 0 0 0 3 2 0 0 0 0 0 0 0 0 0 0 0 0 0 0 0 0
CIN
-245 -214 -187 -168 -69 -39 -36 -35 -45 -70 -78 -56 -57 -64 -73 -59 -51 -46 -45 -30 -24 -25 -37 -46 -53 -65 -69 -84 -100 -92 -120 -118 -85 -168 -137 -104 -118 -99 -93 -79 -65 -50 -74
-238 -220 -225 -183 -88 -29 -36 -33 -42 -53 -72 -51 -42 -55 -61 -71 -56 -45 -39 -27 -19 -20 -21 -24 -38 -30 -30 -38 -40 -34 -39 -46 -29 -14 -52 -63 -72 -67 -69 -64 -55 -77 -96
-220 -224 -228 -222 -144 -81 -47 -54 -44 -39 -53 -50 -36 -38 -52 -70 -58 -40 -39 -38 -30 -21 -18 -15 -15 -18 -27 -27 -30 -38 -40 -34 -30 -20 -22 -57 -75 -79 -89 -87 -99 -111 -130
-215 -199 -208 -220 -184 -130 -87 -52 -53 -41 -37 -38 -34 -37 -41 -44 -44 -35 -32 -35 -33 -26 -24 -26 -21 -20 -21 -22 -21 -24 -26 -26 -26 -23 -26 -27 -40 -64 -77 -63 -96 -96 -143
-217 -174 -183 -190 -183 -130 -107 -86 -62 -62 -50 -42 -38 -36 -34 -39 -35 -33 -25 -28 -27 -26 -26 -30 -30 -29 -23 -20 -16 -19 -22 -17 -18 -18 -25 -35 -58 -59 -38 -58 -55 -86 -154
-230 -189 -145 -139 -139 -152 -141 -126 -96 -78 -74 -59 -49 -41 -31 -31 -32 -32 -27 -21 -17 -17 -21 -22 -27 -28 -27 -30 -34 -36 -31 -19 -17 -17 -22 -23 -63 -51 -55 -44 -48 -68 -102
-189 -200 -161 -131 -123 -127 -134 -140 -126 -119 -114 -96 -87 -59 -39 -32 -30 -28 -30 -24 -14 -13 -18 -21 -27 -35 -37 -35 -36 -44 -46 -53 -51 -20 -41 -51 -46 -43 -60 -70 -73 -69 -68
-111 -127 -169 -140 -125 -122 -119 -119 -125 -124 -116 -105 -95 -92 -74 -56 -38 -30 -36 -46 -29 -25 -37 -45 -38 -40 -39 -39 -40 -47 -58 -67 -74 -68 -67 -81 -81 -89 -91 -82 -79 -87 -120
-108 -65 -68 -116 -118 -107 -99 -90 -91 -81 -54 -52 -102 -98 -68 -50 -96 -88 -70 -43 -50 -62 -65 -62 -66 -76 -78 -79 -82 -72 -83 -89 -89 -97 -149 -153 -220 -177 -202 -166 -117 -104 -92
-198 -174 -178 -170 -124 -120 -162 -222 -240 -132 -65 -154 0 0 -208 -141 -204 -175 -143 -93 -38 -82 -98 -190 -209 -127 -58 -56 -57 -62 -85 -122 -101 -111 -184 -169 -183 -179 -164 -172 -116 -83 -102
0 -271 -289 -308 -260 -236 -203 -164 -232 -200 -129 -1 0 0 0 -18 -228 0 0 -73 -160 -210 -117 -136 -315 -195 0 0 0 0 0 -113 -114 -118 -190 -218 -177 -209 -166 -195 -222 -147 -102
0 -84 -124 -61 -177 -210 -259 -154 -38 -309 -164 0 -57 0 0 0 0 0 0 0 -182 -397 -345 -472 0 0 0 0 0 0 0 0 0 0 -191 -147 -128 -107 -96 -96 -126 -131 -146
-1 -17 -75 -16 -98 -81 -47 -105 -149 -84 -172 -144 -110 -9 0 0 0 0 0 0 0 0 -437 0 0 0 0 0 0 0 0 0 0 -95 -100 -156 -54 -79 -82 -135 -212 -305 -339
-26 -328 -68 -2 -18 -36 -87 -76 -29 -20 -22 0 0 0 0 0 0 0 0 0 0 0 0 0 0 0 0 0 0 0 0 0 0 -151 -171 -222 -224 -152 -97 -83 -119 -208 -280
0 0 -124 -20 -30 -63 -46 -25 -18 0 -31 -36 -66 -113 -118 -120 -141 -111 0 0 0 0 0 0 0 0 0 0 0 0 0 0 0 0 0 -87 0 0 0 -210 -210 -153 -131
0 0 -34 -72 0 0 0 0 0 0 0 0 -61 -142 0 -62 0 0 0 0 0 0 0 0 0 0 0 0 0 0 0 0 0 0 0 0 0 0 0 0 0 -370 -193
0 0 0 0 0 -3 0 0 -39 0 0 0 0 0 0 0 0 0 0 0 0 0 0 0 0 0 0 0 0 0 0 0 0 0 0 0 0 0 0 0 0 0 0
0 0 0 0 0 0 0 0 0 0 0 0 0 0 0 0 0 0 0 0 0 0 0 0 0 0 0 0 0 0 0 0 0 0 0 0 0 0 0 0 0 0 0
0 0 0 0 0 0 0 0 0 0 0 0 0 0 0 0 0 0 0 0 0 0 0 0 0 0 0 0 0 0 0 0 0 0 0 0 0 0 0 0 0 0 0
0 0 0 0 0 0 0 0 0 0 0 0 0 0 0 0 0 0 0 0 0 0 0 0 0 0 0 0 0 0 0 0 0 0 0 0 0 0 0 0 0 0 0
0 0 0 0 0 0 0 0 0 0 0 0 0 0 0 0 0 0 0 0 0 0 0 0 0 0 0 0 0 0 0 0 0 0 0 0 0 0 0 0 0 0 0
0 0 0 0 0 0 0 0 0 0 0 0 0 0 0 0 0 0 0 0 0 0 0 0 0 0 0 0 0 0 0 0 0 0 0 0 0 0 0 0 0 0 0
0 0 0 0 0 0 0 0 0 0 0 0 0 0 0 0 0 0 0 0 0 0 0 0 0 0 0 0 0 0 0 0 0 0 0 0 0 0 0 0 0 0 0
0 0 0 0 0 0 0 0 0 0 0 0 0 0 0 0 0 0 0 0 0 0 -115 -90 -36 0 0 0 0 0 0 0 0 0 0 0 0 0 0 0 0 0 0
0 0 0 0 0 0 0 0 0 0 0 0 0 0 0 0 0 0 0 0 0 0 0 -148 -127 -85 0 0 0 0 0 0 0 0 0 0 0 0 0 0 0 0 0
0 0 0 0 0 0 0 0 0 0 0 0 0 0 0 0 0 0 0 0 0 0 0 0 0 -83 -45 0 0 0 0 0 0 0 0 0 0 0 0 0 0 0 0
Wind_Speed
19 19 19 18 16 15 13 11 11 11 13 12 24 35 36 33 21 25 26 25 24 25 24 24 23 21 20 21 19 18 17 17 15 28 26 29 30 29 29 27 28 29 28
16 17 18 19 18 16 16 15 16 12 13 11 9 24 24 18 16 17 19 18 16 17 19 22 22 22 23 23 22 21 21 19 18 16 27 29 29 31 27 28 32 31 28
17 16 17 19 19 18 17 17 16 17 16 17 17 18 16 16 17 19 21 20 19 19 21 22 25 24 24 24 23 22 22 22 19 20 21 26 28 30 30 31 31 32 28
18 18 17 17 18 18 18 19 21 21 23 22 21 21 20 17 16 19 22 23 24 25 24 24 24 22 22 24 25 25 26 25 24 25 27 27 29 32 30 32 36 33 32
19 19 19 19 21 22 24 19 19 20 20 24 25 24 24 22 20 20 25 26 26 28 28 27 25 24 23 23 24 25 24 25 25 26 26 26 28 31 30 30 31 29 35
19 20 22 22 21 23 24 24 23 24 25 25 26 28 27 24 25 24 23 27 28 28 31 31 30 29 27 25 24 23 23 25 25 26 27 29 32 31 30 30 32 31 30
24 23 23 25 24 25 24 24 25 25 26 27 29 27 30 31 28 26 26 28 30 31 32 33 35 34 34 33 32 29 26 25 23 29 33 31 32 32 29 30 27 18 16
29 30 25 24 24 25 25 24 24 25 26 26 28 29 30 33 33 32 29 28 28 29 29 31 33 35 34 33 33 33 31 29 28 31 30 31 31 32 26 23 22 14 17
27 26 26 26 25 25 25 27 30 29 29 27 28 30 32 31 29 30 31 30 29 30 30 31 31 31 28 31 31 31 26 31 30 31 34 35 35 35 30 20 20 17 18
21 20 19 20 21 23 24 26 27 31 30 24 22 22 24 23 22 24 27 31 36 37 33 34 33 33 21 20 25 30 27 27 30 33 34 35 35 36 30 18 19 16 18
21 23 25 26 25 28 29 29 28 28 25 22 18 22 24 25 26 26 24 30 32 34 33 31 29 29 25 29 29 27 30 27 33 32 33 33 35 34 33 27 17 14 16
23 31 26 26 29 22 29 29 24 26 26 26 19 26 30 9 23 18 22 13 34 20 30 26 28 27 27 27 28 26 30 34 28 27 29 28 31 31 30 28 22 17 14
11 17 14 19 22 18 12 21 18 17 17 10 10 6 2 7 4 1 7 8 12 14 31 28 26 23 26 22 26 32 31 21 15 15 24 25 26 29 29 27 24 22 22
13 12 11 9 10 10 11 13 13 14 11 11 10 8 4 5 6 4 2 7 21 27 27 25 23 22 23 25 24 25 26 25 23 21 21 26 28 29 29 28 27 24 23
15 15 13 13 11 11 12 13 13 13 11 9 8 8 9 10 7 6 8 14 22 23 23 22 20 20 21 24 25 24 23 25 26 26 26 28 29 30 30 30 29 26 24
16 16 15 14 13 13 13 13 14 13 13 12 10 9 11 10 8 9 12 16 19 18 17 19 20 21 22 23 25 25 26 27 26 26 26 27 28 30 31 30 30 29 30
16 17 15 14 14 16 16 16 15 13 13 13 12 11 9 7 9 11 14 16 18 20 20 20 21 22 23 24 24 25 26 26 26 26 25 27 27 28 29 29 30 30 30
18 18 17 17 17 17 18 18 18 18 18 17 13 12 12 12 13 15 18 17 21 21 22 22 23 23 25 26 26 27 27 27 27 28 28 28 28 29 29 30 31 32 33
19 19 19 18 18 17 18 20 21 21 20 18 17 17 16 16 17 19 20 21 22 22 22 23 24 24 25 26 26 27 27 28 29 29 29 30 30 31 31 31 32 33 34
21 21 21 20 20 21 21 22 23 22 22 22 22 21 19 18 20 21 20 22 23 23 22 22 22 23 24 25 25 26 27 27 29 29 30 30 31 32 33 34 34 35 35
21 22 22 21 22 23 24 25 26 25 25 26 26 25 25 23 22 21 22 24 24 22 21 20 21 22 23 23 24 24 25 27 28 29 29 30 30 32 32 32 34 34 35
22 22 21 21 22 23 24 25 26 27 28 28 30 28 25 24 25 24 24 25 24 21 20 19 20 20 21 22 23 23 24 26 28 29 30 31 31 31 32 33 34 34 34
25 25 25 25 26 27 28 28 28 29 30 30 30 30 28 28 26 25 26 28 27 24 21 20 21 22 21 22 21 22 24 26 26 26 29 30 32 32 33 33 34 34 34
26 26 27 28 29 29 29 30 30 29 30 30 30 29 28 27 26 26 26 26 26 26 23 21 22 23 23 22 22 22 23 24 25 26 27 30 31 32 33 34 35 35 35
30 31 31 31 31 30 30 30 31 31 32 32 32 32 32 31 29 27 26 25 27 27 27 25 25 23 23 24 24 23 23 23 25 25 27 29 31 31 33 34 35 36 35
31 32 32 33 33 33 32 31 31 31 33 33 33 33 33 33 32 31 30 31 29 31 30 27 27 28 30 29 27 28 27 25 25 25 26 28 31 32 33 35 35 35 35
Wind_Direction
200 202 208 216 227 243 239 230 252 201 195 195 195 235 245 258 276 275 278 282 286 286 292 295 298 303 308 313 318 321 323 326 323 322 328 331 334 339 342 346 347 348 349
212 216 209 233 235 239 241 251 262 255 259 246 250 276 278 278 276 281 291 296 298 298 298 299 301 304 303 307 312 316 318 321 323 317 326 328 331 333 339 341 342 345 347
226 217 221 212 220 228 240 246 254 266 264 267 274 278 282 276 275 280 288 295 297 299 301 303 300 303 303 305 308 312 314 317 318 319 321 327 329 332 335 337 341 343 347
230 227 224 218 222 234 247 251 255 261 265 267 272 276 278 278 276 281 288 290 292 294 298 301 303 306 307 307 307 309 310 314 317 319 322 324 327 328 333 335 337 343 346
237 236 232 245 253 255 258 254 254 258 261 267 271 275 277 276 277 279 283 286 289 291 295 298 302 305 306 307 309 311 312 314 315 317 320 324 325 327 332 336 337 342 342
237 245 250 251 253 258 261 261 263 263 265 268 270 273 276 277 278 278 281 287 290 292 293 295 297 300 304 305 305 305 309 312 314 316 319 320 320 325 329 333 335 340 340
249 254 255 254 256 260 264 266 267 268 270 270 272 273 275 276 278 279 283 287 290 291 293 294 294 297 298 300 302 304 305 306 306 310 310 314 317 321 327 330 336 344 348
253 255 258 257 259 262 265 268 272 273 273 274 276 275 274 274 276 279 283 287 289 292 296 298 300 300 301 302 303 303 304 306 307 306 308 312 315 318 324 329 332 339 343
255 256 261 260 262 266 272 277 279 280 281 280 282 279 277 279 282 281 284 285 290 293 297 301 304 307 308 301 302 302 303 304 307 307 306 307 311 311 319 331 335 339 341
254 261 265 269 271 273 276 281 287 289 287 287 285 286 283 282 287 289 288 287 284 285 297 301 307 309 311 304 305 303 302 303 304 305 306 306 308 305 313 324 332 339 341
269 268 269 272 274 275 278 284 286 292 289 293 284 286 287 280 279 283 292 288 253 270 290 307 323 322 323 316 316 314 310 309 301 300 300 306 301 304 305 314 329 340 342
277 268 266 276 275 289 276 283 288 299 283 286 290 299 301 233 270 284 286 310 266 287 300 317 330 336 340 335 330 325 316 305 308 304 298 307 302 306 310 313 329 341 353
306 286 286 280 279 295 307 292 312 315 294 299 327 351 310 356 21 338 274 298 313 318 296 306 324 336 339 356 343 325 319 346 343 323 305 309 311 306 308 314 324 332 331
344 348 341 343 329 324 330 328 328 324 323 319 321 320 18 77 36 28 348 326 302 295 302 311 325 330 331 335 343 341 341 351 357 335 316 292 293 298 301 311 317 325 327
334 330 333 339 345 345 338 333 330 332 335 333 330 323 321 327 346 349 335 319 302 307 314 322 333 337 334 333 331 336 341 337 332 317 307 299 300 301 302 306 311 318 321
341 339 333 330 337 344 344 343 352 357 353 352 345 339 338 337 347 348 333 319 317 324 336 335 336 341 336 334 331 329 327 328 329 323 315 314 310 309 310 312 312 312 311
341 336 335 344 336 327 328 329 328 346 353 352 358 360 3 14 354 343 334 328 320 318 322 327 330 332 332 329 328 327 324 325 325 325 322 318 316 314 315 316 318 318 316
341 341 338 331 332 332 324 323 325 324 323 325 331 332 334 332 327 327 324 322 318 319 319 321 322 323 321 319 318 317 317 318 317 315 315 316 317 315 313 313 313 314 314
343 339 338 339 338 333 332 327 323 323 320 318 321 321 315 315 315 313 312 313 314 315 316 318 319 318 317 316 315 314 314 313 312 312 312 312 312 312 312 313 314 314 315
332 329 328 328 327 325 324 325 323 321 317 312 310 311 314 311 307 307 311 312 312 312 312 315 318 319 320 320 319 316 314 314 313 313 313 313 312 312 310 310 311 310 312
332 328 325 324 323 322 320 320 319 319 319 317 311 308 306 304 304 303 304 307 309 308 307 310 314 317 319 320 320 320 318 316 315 316 316 316 316 312 314 313 312 312 310
335 333 331 329 326 320 318 316 315 314 313 313 311 307 305 305 305 302 301 304 306 305 304 306 309 311 315 318 318 318 315 315 315 314 315 316 315 314 314 313 313 313 312
339 336 330 327 324 322 320 319 317 315 313 313 317 317 310 304 305 303 301 303 304 303 299 298 302 305 309 312 314 314 312 313 314 316 316 315 314 313 312 311 311 312 312
336 335 334 334 331 328 323 321 317 316 315 314 314 316 319 320 316 309 305 304 305 304 300 296 296 298 301 304 306 307 309 311 313 314 315 314 314 313 312 311 309 309 309
321 321 323 326 328 329 327 322 318 315 312 310 307 307 307 308 310 312 314 316 316 309 306 301 297 297 298 299 300 301 301 302 306 309 311 311 312 312 312 311 309 308 308
315 316 317 318 318 319 320 320 320 320 316 312 311 308 306 307 309 308 309 310 310 312 315 312 308 302 301 299 297 295 294 294 298 301 306 307 308 309 310 310 309 309 308